Weather History for KCEY - January, 2012

Change the Weather History Date:

Sunday, January 22, 2012

  Actual Average (KPAH) Record (KPAH)
Temperature  
Mean Temperature 46 °F 35 °F  
Max Temperature 59 °F 44 °F 67 °F (1999)
Min Temperature 33 °F 26 °F 0 °F (1984)
Degree Days  
Heating Degree Days 19 30  
Month to date heating degree days 677  
Since 1 July heating degree days 2308  
Cooling Degree Days 0 0  
Month to date cooling degree days 0  
Year to date cooling degree days 0  
Moisture  
Dew Point 41 °F    
Average Humidity 96    
Maximum Humidity 100    
Minimum Humidity 88    
Precipitation  
Precipitation 0.00 in 0.12 in 3.21 in (1982)
Month to date precipitation 2.60  
Year to date precipitation 2.60  
Snow  
Snow 0.00 in 0.10 in 3.00 in (1966)
Month to date snowfall 2.0  
Since 1 July snowfall 4.3  
Snow Depth -    
Sea Level Pressure  
Sea Level Pressure 29.94 in    
Wind  
Wind Speed 9 mph (SE)    
Max Wind Speed 14 mph    
Max Gust Speed 21 mph    
Visibility 4 miles    
Events      
T = Trace of Precipitation, MM = Missing Value Source: NWS Daily Summary

Daily Weather History Graph

Daily Weather History Graph

Search for Another Location

Airport or City:

Trip Planner

Search our weather history database for the weather conditions in past years. The results will help you decide how hot, cold, wet, or windy it might be!

Date:

Astronomy

Jan. 22, 2012 Rise Set
Actual Time 7:02 AM CST 5:08 PM CST
Civil Twilight 6:34 AM CST 5:35 PM CST
Nautical Twilight 6:03 AM CST 6:07 PM CST
Astronomical Twilight 5:32 AM CST 6:38 PM CST
Moon 6:18 AM CST (1/22) 4:49 PM CST (1/22)
Length of Visible Light 11h 01m
Length of Day
10h 05m
Waning Crescent, 0% of the Moon is Illuminated
Jan 22
Waning Crescent
Jan 23
New
Jan 30
First Quarter
Feb 7
Full
Feb 14
Last Quarter

Hourly Weather History & Observations

Time (CST) Temp. Windchill Dew Point Humidity Pressure Visibility Wind Dir Wind Speed Gust Speed Precip Events Conditions
12:15 AM 33.8 °F 27.0 °F 32.0 °F 93% 30.08 in 5.0 mi ESE 8.1 mph - N/A   Overcast
12:35 AM 33.8 °F 25.8 °F 32.0 °F 93% 30.08 in 7.0 mi East 10.4 mph - N/A   Overcast
12:55 AM 33.8 °F 25.3 °F 32.0 °F 93% 30.06 in 8.0 mi ESE 11.5 mph 16.1 mph N/A   Overcast
1:15 AM 33.8 °F 25.3 °F 32.0 °F 93% 30.06 in 9.0 mi ESE 11.5 mph 16.1 mph N/A   Overcast
1:35 AM 33.8 °F 26.4 °F 32.0 °F 93% 30.05 in 9.0 mi East 9.2 mph - N/A   Overcast
1:55 AM 33.8 °F 27.7 °F 32.0 °F 93% 30.05 in 8.0 mi ESE 6.9 mph - N/A   Overcast
2:15 AM 33.8 °F 26.4 °F 32.0 °F 93% 30.03 in 8.0 mi ESE 9.2 mph - N/A   Overcast
2:35 AM 33.8 °F 25.8 °F 32.0 °F 93% 30.03 in 7.0 mi ESE 10.4 mph - N/A   Overcast
2:55 AM 33.8 °F 25.3 °F 32.0 °F 93% 30.02 in 6.0 mi ESE 11.5 mph 17.3 mph N/A   Overcast
3:15 AM 33.8 °F 25.8 °F 32.0 °F 93% 30.02 in 6.0 mi ESE 10.4 mph - N/A   Overcast
3:35 AM 33.8 °F 27.7 °F 32.0 °F 93% 30.01 in 5.0 mi SE 6.9 mph - N/A   Overcast
3:55 AM 33.8 °F 27.7 °F 32.0 °F 93% 30.01 in 3.0 mi SE 6.9 mph - N/A   Overcast
4:15 AM 33.8 °F 26.4 °F 33.8 °F 100% 30.01 in 3.0 mi SE 9.2 mph - N/A   Overcast
4:35 AM 35.6 °F 29.2 °F 33.8 °F 93% 30.00 in 2.0 mi SE 8.1 mph - N/A   Overcast
4:55 AM 35.6 °F 30.7 °F 33.8 °F 93% 30.01 in 0.8 mi SE 5.8 mph - N/A   Overcast
5:15 AM 35.6 °F 29.9 °F 33.8 °F 93% 30.01 in 0.5 mi SE 6.9 mph - N/A   Overcast
5:35 AM 35.6 °F 30.7 °F 35.6 °F 100% 30.01 in 0.5 mi South 5.8 mph - N/A   Overcast
5:55 AM 35.6 °F 30.7 °F 35.6 °F 100% 30.01 in 0.5 mi SE 5.8 mph - N/A   Overcast
6:15 AM 35.6 °F 30.7 °F 35.6 °F 100% 30.00 in 0.5 mi SE 5.8 mph - N/A   Overcast
6:35 AM 35.6 °F 29.2 °F 35.6 °F 100% 30.01 in 0.5 mi SSE 8.1 mph - N/A   Overcast
6:55 AM 35.6 °F 30.7 °F 35.6 °F 100% 30.01 in 0.2 mi SE 5.8 mph - N/A   Overcast
7:15 AM 35.6 °F 30.7 °F 35.6 °F 100% 30.01 in 0.2 mi SE 5.8 mph - N/A   Overcast
7:35 AM 35.6 °F 30.7 °F 35.6 °F 100% 30.00 in 0.2 mi ESE 5.8 mph - N/A   Overcast
7:55 AM 35.6 °F 30.7 °F 35.6 °F 100% 30.00 in 0.2 mi ESE 5.8 mph - N/A   Overcast
8:15 AM 37.4 °F 31.4 °F 35.6 °F 93% 29.99 in 0.2 mi ESE 8.1 mph - N/A   Overcast
8:35 AM 37.4 °F 30.8 °F 37.4 °F 100% 29.99 in 0.2 mi ESE 9.2 mph - N/A   Overcast
8:55 AM 37.4 °F 31.4 °F 37.4 °F 100% 29.98 in 0.5 mi ESE 8.1 mph - N/A   Overcast
9:15 AM 37.4 °F 30.8 °F 37.4 °F 100% 29.98 in 1.5 mi ESE 9.2 mph - N/A   Overcast
9:35 AM 39.2 °F 32.5 °F 39.2 °F 100% 29.98 in 2.0 mi SE 10.4 mph 17.3 mph N/A   Overcast
9:55 AM 39.2 °F 33.6 °F 39.2 °F 100% 29.97 in 2.0 mi ESE 8.1 mph - N/A   Overcast
10:15 AM 41.0 °F 34.7 °F 41.0 °F 100% 29.97 in 3.0 mi SE 10.4 mph - N/A   Overcast
10:35 AM 41.0 °F 34.7 °F 41.0 °F 100% 29.96 in 3.0 mi SE 10.4 mph - N/A   Overcast
10:55 AM 42.8 °F 38.0 °F 42.8 °F 100% 29.94 in 4.0 mi SE 8.1 mph - N/A   Overcast
11:15 AM 44.6 °F 39.7 °F 44.6 °F 100% 29.92 in 3.0 mi SE 9.2 mph 16.1 mph N/A   Overcast
11:35 AM 44.6 °F 38.8 °F 44.6 °F 100% 29.91 in 2.5 mi SE 11.5 mph 17.3 mph N/A   Overcast
11:55 AM 46.4 °F 41.9 °F 44.6 °F 93% 29.90 in 1.2 mi SSE 9.2 mph 17.3 mph N/A   Overcast
12:15 PM 46.4 °F 41.9 °F 46.4 °F 100% 29.90 in 1.5 mi SSE 9.2 mph 17.3 mph N/A   Overcast
12:35 PM 46.4 °F 41.5 °F 46.4 °F 100% 29.88 in 1.8 mi SSE 10.4 mph - N/A   Overcast
12:55 PM 48.2 °F - 48.2 °F 100% 29.87 in 2.0 mi SSE 8.1 mph - N/A   Overcast
1:15 PM 48.2 °F - 48.2 °F 100% 29.86 in 2.0 mi SSE 8.1 mph - N/A   Overcast
1:35 PM 50.0 °F - 48.2 °F 94% 29.85 in 3.0 mi SE 6.9 mph - N/A   Overcast
1:55 PM 51.8 °F - 50.0 °F 94% 29.84 in 5.0 mi SSE 11.5 mph - N/A   Overcast
2:15 PM 53.6 °F - 50.0 °F 88% 29.83 in 6.0 mi SE 8.1 mph - N/A   Overcast
2:35 PM 53.6 °F - 51.8 °F 94% 29.82 in 7.0 mi SE 9.2 mph - N/A   Overcast
2:55 PM 53.6 °F - 53.6 °F 100% 29.82 in 6.0 mi SSE 10.4 mph 17.3 mph N/A   Overcast
3:15 PM 55.4 °F - 53.6 °F 94% 29.81 in 6.0 mi SE 11.5 mph 17.3 mph N/A   Overcast
3:55 PM 55.4 °F - 55.4 °F 100% 29.81 in 7.0 mi SSE 10.4 mph 17.3 mph N/A   Overcast
4:15 PM 57.2 °F - 55.4 °F 94% 29.80 in 7.0 mi SSE 13.8 mph 20.7 mph N/A   Overcast
4:35 PM 57.2 °F - 55.4 °F 94% 29.81 in 7.0 mi SSE 12.7 mph 17.3 mph N/A   Overcast
4:55 PM 57.2 °F - 55.4 °F 94% 29.81 in 5.0 mi SSE 9.2 mph 19.6 mph N/A   Overcast
5:15 PM 57.2 °F - 57.2 °F 100% 29.80 in 7.0 mi SSE 12.7 mph 18.4 mph N/A   Overcast
5:35 PM 59.0 °F - 57.2 °F 94% 29.81 in 6.0 mi SSE 12.7 mph 19.6 mph N/A   Overcast
5:55 PM 59.0 °F - 57.2 °F 94% 29.80 in 5.0 mi SE 11.5 mph 18.4 mph N/A   Overcast
6:15 PM 59.0 °F - 57.2 °F 94% 29.79 in 6.0 mi SSE 10.4 mph 17.3 mph N/A   Overcast
6:35 PM 59.0 °F - 59.0 °F 100% 29.78 in 7.0 mi SSE 11.5 mph 20.7 mph N/A   Overcast
6:55 PM 59.0 °F - 59.0 °F 100% 29.78 in 9.0 mi SSE 11.5 mph 18.4 mph N/A   Overcast
7:15 PM 59.0 °F - 59.0 °F 100% 29.77 in 10.0 mi SSE 15.0 mph 20.7 mph N/A   Overcast
7:35 PM 59.0 °F - 59.0 °F 100% 29.75 in 8.0 mi SSE 11.5 mph 20.7 mph N/A   Overcast
7:55 PM 60.8 °F - 59.0 °F 94% 29.73 in 9.0 mi SE 15.0 mph 23.0 mph N/A   Overcast
8:15 PM 60.8 °F - 59.0 °F 94% 29.70 in 9.0 mi SE 13.8 mph 23.0 mph N/A   Overcast
8:35 PM 62.6 °F - 59.0 °F 88% 29.68 in 10.0 mi SE 17.3 mph 26.5 mph N/A   Overcast
8:55 PM 62.6 °F - 59.0 °F 88% 29.67 in 10.0 mi SE 19.6 mph 26.5 mph N/A   Overcast
9:15 PM 62.6 °F - 59.0 °F 88% 29.68 in 10.0 mi SSE 13.8 mph 32.2 mph N/A   Overcast
9:35 PM 64.4 °F - 60.8 °F 88% 29.65 in 10.0 mi SSE 16.1 mph 31.1 mph N/A   Overcast
9:55 PM 64.4 °F - 60.8 °F 88% 29.64 in 6.0 mi SSE 18.4 mph 33.4 mph 0.01 in   Overcast
10:15 PM 64.4 °F - 60.8 °F 88% 29.63 in 10.0 mi SSE 20.7 mph 31.1 mph N/A   Overcast
10:35 PM 64.4 °F - 60.8 °F 88% 29.62 in 6.0 mi SSE 21.9 mph 35.7 mph 0.01 in   Overcast
10:55 PM 57.2 °F - 53.6 °F 88% 29.70 in 1.0 mi SW 34.5 mph 46.0 mph 0.28 in   Overcast
11:15 PM 53.6 °F - 51.8 °F 94% 29.70 in 0.5 mi SSW 11.5 mph 27.6 mph 0.57 in   Overcast
11:35 PM 53.6 °F - 51.8 °F 94% 29.71 in 3.0 mi South 10.4 mph - 0.66 in   Overcast
11:55 PM 53.6 °F - 53.6 °F 100% 29.71 in 5.0 mi SW 15.0 mph 23.0 mph 0.70 in   Overcast